Location: Halle (Saale)
(51.4970°N, 11.9688°E)
Time: 16:12:26
(UTC+02:00)

ISS - Visible Passes

Search period start: 26 June 2022 00:00
Search period end: 06 July 2022 00:00
Orbit: 415 x 420 km, 51.6° (Epoch: 26 June)

Date Brightness Start Highest point End Pass type
(mag) Time Alt. Az. Time Alt. Az. Time Alt. Az.
30 Jun -2.5 04:10:43 10° SSW 04:13:41 29° SSE 04:16:40 10° E visible
01 Jul -2.0 03:24:41 14° S 03:26:36 21° SE 03:29:14 10° E visible
02 Jul -1.7 02:39:13 14° SSE 02:39:46 15° SE 02:41:45 10° ESE visible
03 Jul -3.1 03:26:53 16° SW 03:29:18 40° SSE 03:32:31 10° E visible
04 Jul -2.7 02:41:42 24° S 02:42:46 30° SSE 02:45:47 10° E visible
05 Jul -2.2 01:56:40 22° SE 01:56:40 22° SE 01:59:08 10° E visible
05 Jul -3.7 03:29:40 11° WSW 03:32:57 69° SSE 03:36:22 10° E visible
